Temperature
20 21 21 21 22 22 21 20 20 20 20 19 19 19 19 20 20 19 19 19 19 20 20 20 20 20 20 20 19 19 18 18 18 18 18 18 17 17 17 17 17 17 16 16
19 21 21 22 22 23 22 22 21 21 20 19 19 19 19 19 18 18 18 18 18 18 19 19 19 19 19 18 18 18 18 18 18 17 17 17 17 17 17 16 16 16 16 16
17 19 20 20 20 21 21 21 21 20 19 18 18 18 18 17 17 16 16 17 17 17 17 18 18 18 18 17 17 17 17 17 16 16 16 16 16 16 16 16 15 15 15 15
16 18 19 19 19 20 20 21 21 20 19 18 17 16 17 17 16 15 15 16 16 16 16 16 16 16 16 16 16 16 16 15 15 15 15 15 15 15 15 15 14 14 14 14
15 16 17 19 18 17 18 18 19 19 18 17 16 15 14 15 16 15 15 15 15 15 15 15 15 15 15 15 15 15 14 14 14 14 14 14 14 14 13 13 13 13 13 13
14 16 17 17 17 17 18 17 18 18 17 17 16 15 13 14 14 15 15 15 14 14 14 14 14 14 14 14 14 13 13 13 13 13 13 13 13 13 13 12 12 12 12 12
14 15 16 16 16 17 17 17 17 17 17 16 15 15 14 14 14 14 14 14 14 14 14 13 13 14 13 13 12 12 12 12 12 12 12 12 12 12 12 12 11 11 11 11
14 15 15 16 16 16 16 16 16 16 16 15 14 13 13 13 14 14 13 13 14 13 13 13 13 13 13 12 11 11 12 12 11 11 11 11 11 11 11 11 11 11 11 10
14 14 14 15 15 15 16 15 16 15 15 15 14 13 13 13 13 13 13 13 13 13 12 12 12 12 12 11 11 11 11 11 11 11 11 11 11 11 11 11 11 10 10 10
13 14 14 15 15 16 16 16 16 15 15 14 13 13 13 13 13 13 13 13 13 13 12 12 12 11 11 11 11 11 11 11 11 11 11 11 11 11 10 10 10 10 10 9
14 14 14 15 15 15 15 15 15 14 14 14 13 13 13 13 13 13 13 13 12 12 12 11 11 11 11 11 11 11 11 10 10 10 10 10 10 10 10 10 9 9 9 8
14 14 13 14 15 15 15 14 14 14 13 13 13 13 13 13 13 13 12 12 12 12 12 11 11 11 11 11 10 10 10 10 10 10 10 10 9 9 9 9 8 8 8 7
15 14 14 14 14 15 14 14 14 14 13 13 13 13 13 13 13 13 12 12 12 12 11 11 11 11 10 10 10 10 10 9 9 9 9 9 9 9 8 8 8 7 7 6
15 14 14 13 13 14 14 14 14 13 13 13 13 13 13 13 12 12 12 12 12 11 11 11 11 10 10 10 10 10 9 9 9 9 8 8 8 8 7 7 7 6 5 5
15 15 14 14 13 13 14 14 13 13 13 13 13 13 13 13 12 12 12 12 11 11 11 11 10 10 10 10 9 9 9 8 8 8 8 7 7 7 6 6 5 5 4 4
14 14 14 14 13 13 13 13 13 13 13 13 13 13 12 12 12 12 12 11 11 11 11 10 10 10 9 9 9 9 8 8 8 7 7 7 6 6 5 5 4 4 3 3
14 13 13 13 13 13 13 13 13 13 13 13 12 12 12 12 12 11 11 11 11 10 10 10 10 9 9 8 8 8 7 7 7 6 6 6 5 4 4 3 3 2 2 2
14 14 14 14 13 13 13 13 13 13 13 12 12 12 12 11 11 11 11 10 10 10 9 9 9 8 8 8 7 7 6 6 6 5 5 4 4 3 3 2 2 2 1 1
14 13 13 13 13 13 13 13 12 12 12 12 12 11 11 11 10 10 10 10 9 9 8 8 8 7 7 7 6 6 6 5 5 4 4 3 3 2 2 2 1 1 1 1
13 13 13 13 13 13 12 12 12 12 12 11 11 11 10 10 10 10 9 9 9 8 7 7 7 7 6 6 5 5 5 4 4 3 3 2 2 2 1 1 1 0 0 0
12 12 12 12 12 12 12 12 12 11 11 11 11 10 10 10 9 9 9 8 8 7 7 6 6 6 5 5 5 4 4 3 3 2 2 2 1 1 1 1 0 0 -0 -0
12 12 12 12 12 11 11 11 11 11 10 10 10 10 9 9 9 8 8 7 7 6 6 6 5 5 4 4 4 3 3 2 2 2 1 1 1 1 0 0 0 -0 -0 -1
12 11 11 11 11 11 11 11 11 10 10 10 9 9 9 8 8 8 7 6 6 6 5 5 5 4 4 3 3 3 2 2 2 1 1 1 1 0 0 0 -0 -1 -1 -1
11 11 11 11 11 11 10 10 10 10 9 9 9 9 8 8 7 7 6 6 5 5 5 4 4 4 3 3 3 2 2 2 1 1 1 1 0 0 -0 -0 -1 -1 -1 -1
11 11 11 10 10 10 10 10 9 9 9 8 8 8 7 7 7 6 6 5 5 4 4 4 4 3 3 3 2 2 2 1 1 1 1 0 0 -0 -0 -1 -1 -1 -1 -1
10 10 10 10 10 10 9 9 9 8 8 8 7 7 7 6 6 5 5 5 4 4 4 4 3 3 3 2 2 2 1 1 1 1 0 0 -0 -0 -0 -1 -1 -1 -1 -1
10 10 10 9 9 9 9 9 8 8 7 7 7 6 6 6 5 5 5 4 4 4 4 3 3 3 3 2 2 2 1 1 1 1 0 0 -0 -0 -0 -1 -1 -1 -1 -1
Wind_Speed
5 6 3 5 7 5 5 8 8 9 11 12 12 10 7 7 9 9 8 7 7 7 6 6 6 5 6 6 5 7 7 6 5 3 3 3 2 2 2 2 3 3 3 3
4 4 4 6 7 6 6 5 5 7 7 7 7 6 6 8 11 11 10 10 9 9 9 8 8 8 8 7 7 8 8 6 4 4 3 3 2 2 2 1 0 1 2 3
4 5 5 5 4 3 3 3 7 9 9 10 9 9 8 10 13 13 12 11 11 11 11 10 10 10 11 10 10 10 9 8 7 6 5 5 5 5 4 3 3 2 2 2
2 2 7 6 2 2 2 2 3 6 10 14 12 10 8 9 14 14 13 13 12 11 11 10 11 11 11 11 12 12 10 9 8 8 7 6 6 5 4 3 4 3 3 3
3 5 6 4 3 2 2 3 1 11 17 18 18 16 11 9 13 15 14 12 11 11 11 11 11 11 12 12 11 12 10 9 7 7 7 7 6 5 4 4 4 3 3 4
4 4 6 4 3 2 1 2 0 11 18 18 12 8 7 9 14 16 14 13 13 12 13 13 10 11 13 12 11 10 8 7 6 7 7 6 5 4 4 4 4 4 5 4
5 5 6 2 3 2 4 5 3 7 12 9 4 8 14 15 15 15 15 13 12 13 12 10 9 11 13 11 9 7 6 6 6 6 5 5 4 4 4 5 5 5 6 5
4 4 5 1 0 3 4 2 7 8 8 13 17 19 17 16 15 15 14 13 12 13 11 8 8 11 11 9 6 6 7 6 5 4 4 4 4 3 4 4 5 4 4 4
4 4 3 2 2 3 2 5 7 10 13 20 21 19 17 15 14 13 13 11 10 12 11 8 8 9 10 6 6 7 7 6 5 5 4 4 3 3 3 3 3 3 3 3
2 2 4 2 0 1 3 7 10 15 17 19 21 19 17 15 13 12 10 10 9 11 10 8 7 7 7 6 6 7 7 5 5 5 5 5 4 3 3 2 3 3 3 2
2 2 3 3 1 4 8 13 17 18 16 16 20 19 16 14 12 11 10 8 9 9 9 8 6 6 5 6 6 7 6 6 5 5 5 5 4 3 3 2 3 4 2 2
3 3 2 0 3 10 15 16 18 19 16 14 16 16 15 12 10 10 10 9 9 8 8 7 6 5 4 5 6 6 5 5 4 4 4 4 4 5 8 7 9 9 8 5
3 4 5 6 9 12 16 17 17 17 18 17 14 14 14 11 9 9 9 9 9 8 7 7 6 5 4 5 6 6 5 4 3 4 4 4 4 4 4 6 10 11 10 9
7 9 10 10 12 14 17 19 19 17 15 15 13 13 12 11 10 10 8 7 8 8 8 7 7 5 4 5 6 6 5 5 5 4 4 4 5 4 4 4 4 4 6 10
7 10 12 13 14 14 16 18 19 16 14 13 12 12 12 11 9 8 7 8 9 9 7 7 7 4 4 6 6 6 5 4 4 4 5 5 5 5 5 5 4 3 4 6
13 14 15 17 16 15 16 16 16 14 12 11 11 10 10 9 9 8 7 9 9 7 6 6 6 4 5 6 6 5 5 8 7 5 5 6 5 5 5 5 4 4 4 4
15 12 15 16 15 14 13 13 12 12 11 10 10 10 10 10 9 8 7 7 8 7 6 6 5 5 6 6 6 5 5 6 10 7 6 5 5 5 4 4 4 4 4 5
12 13 14 15 15 14 12 11 11 11 10 10 10 9 9 9 8 7 7 8 9 8 7 6 6 7 7 7 6 5 5 6 5 5 4 4 4 4 4 4 4 4 4 5
16 15 14 13 12 12 12 11 10 9 9 9 10 9 8 8 7 7 8 9 9 7 4 6 10 8 7 8 8 6 6 6 5 4 4 5 5 4 3 3 4 4 4 5
15 15 15 14 13 12 11 10 10 9 8 9 10 9 8 7 8 9 9 8 4 4 4 6 7 6 6 6 8 5 5 5 4 4 4 4 3 3 3 4 4 4 4 5
14 14 14 13 11 10 10 10 10 9 8 9 9 9 8 7 8 8 8 6 3 5 7 8 6 4 4 5 7 5 5 4 4 3 3 3 3 3 4 4 4 4 5 5
11 11 11 11 10 9 7 8 9 9 8 8 8 9 9 9 9 8 6 5 4 7 6 5 4 5 6 7 5 4 4 4 3 3 3 3 3 3 4 4 4 5 5 5
9 9 9 8 8 7 6 6 7 8 7 7 8 8 8 7 6 7 5 2 4 7 5 4 5 8 8 5 3 3 3 3 3 2 2 3 3 3 3 4 4 5 5 5
8 7 6 6 7 7 6 5 6 7 7 7 7 8 9 7 5 3 5 7 7 7 4 4 6 6 5 3 2 2 2 3 3 3 3 3 3 3 4 4 4 5 5 6
6 6 6 7 6 5 6 7 8 8 8 6 7 7 6 6 6 5 5 6 6 5 3 2 3 4 3 2 2 2 2 3 3 3 4 4 4 4 4 4 4 5 5 5
4 5 5 5 4 4 5 6 5 5 5 5 5 5 5 5 7 6 5 5 5 4 2 1 1 2 2 2 3 3 3 4 4 4 4 4 4 4 4 5 6 5 5 5
4 4 4 4 4 4 5 5 5 5 5 6 5 5 5 5 5 5 4 3 2 2 1 1 2 3 3 3 3 4 4 4 4 4 3 3 3 3 3 4 4 3 5 5
Wind_Direction
253 251 236 254 266 229 195 186 180 199 184 200 199 186 167 146 133 125 131 132 136 137 137 139 139 141 139 142 144 152 149 155 169 161 155 152 147 185 203 199 202 200 198 201
310 314 312 290 277 253 226 194 189 170 200 205 178 139 121 124 125 121 116 111 106 103 100 100 106 109 106 106 105 107 111 113 114 110 108 95 87 80 74 73 142 148 193 190
278 301 329 280 272 267 252 203 172 190 198 159 147 140 139 131 122 119 116 111 105 99 95 94 92 98 100 98 97 96 96 95 92 89 87 87 88 75 68 64 77 89 99 99
235 325 251 243 298 318 276 273 207 176 149 137 124 105 90 111 120 114 110 105 100 99 95 89 89 90 92 89 90 90 85 82 82 84 84 77 73 69 64 65 70 69 71 77
181 223 261 289 318 23 18 323 83 138 133 124 115 91 70 82 105 110 108 103 98 96 96 91 89 91 91 86 87 89 87 84 81 83 83 77 72 65 58 61 54 53 67 74
185 206 230 232 300 322 51 276 192 141 143 142 130 124 135 119 109 106 101 99 98 94 91 88 87 92 91 88 86 85 87 88 86 86 85 79 70 62 54 61 62 63 60 60
195 222 251 253 300 344 188 220 179 151 145 134 97 125 132 122 110 107 104 102 99 95 90 88 89 91 90 88 86 89 89 84 79 81 89 86 69 63 71 70 64 63 67 59
185 207 240 269 278 193 213 201 153 133 118 106 108 113 120 119 115 112 108 104 102 100 94 88 87 90 88 85 87 82 77 71 64 58 64 77 75 65 71 84 80 73 74 63
212 225 263 248 233 275 211 138 127 127 123 126 125 126 125 121 120 116 114 111 107 106 100 91 87 91 91 87 82 74 65 54 44 41 38 43 64 68 64 71 82 77 77 72
261 284 289 290 279 288 149 125 125 128 133 134 129 129 127 125 122 119 118 116 112 107 105 100 95 94 98 93 82 73 62 46 38 38 26 26 35 52 64 63 69 70 71 67
250 266 317 342 98 138 115 113 120 122 127 130 128 128 126 125 123 121 118 113 112 112 112 113 106 97 93 88 79 68 55 43 36 35 33 29 30 42 62 65 111 110 101 97
216 212 159 244 91 117 115 118 122 122 118 118 122 123 122 120 119 119 116 114 114 115 118 119 112 99 87 85 84 74 49 33 32 31 31 38 42 43 49 67 74 83 89 94
136 111 96 99 98 109 115 118 119 120 121 119 115 119 118 117 114 113 114 116 120 123 123 119 110 96 81 79 78 71 56 35 30 28 33 35 46 61 52 42 53 60 62 61
124 112 97 100 105 106 109 109 108 107 108 112 115 113 112 110 110 111 114 117 116 113 111 108 100 88 76 76 68 57 46 36 38 40 44 47 53 59 67 63 41 24 29 36
107 110 115 110 103 102 106 108 107 108 108 107 110 111 112 112 112 112 111 110 107 102 101 102 95 80 69 72 65 51 42 35 47 55 56 58 60 61 60 57 50 29 11 7
105 102 105 104 104 105 107 109 112 113 114 113 111 113 113 112 109 103 105 109 108 107 107 101 94 80 70 67 59 45 39 53 66 68 63 60 57 56 52 48 40 28 17 359
116 114 113 110 108 108 108 110 113 115 114 114 115 113 107 101 96 94 96 99 104 104 97 96 91 77 63 57 54 47 46 55 70 71 65 62 59 56 51 45 31 15 358 356
105 110 114 117 117 113 109 106 107 109 111 112 109 103 104 107 109 109 107 100 90 77 68 81 87 75 57 48 54 58 68 71 69 70 63 55 53 50 44 34 16 5 347 345
101 103 102 102 105 106 105 106 106 105 106 105 103 102 101 104 107 107 105 99 98 91 62 66 78 68 53 50 67 67 74 75 68 60 58 50 46 32 22 12 360 350 341 336
96 96 96 95 96 101 104 104 103 99 100 103 101 99 97 99 104 102 93 84 86 108 102 83 73 61 47 56 74 73 73 73 67 56 47 39 29 14 4 359 353 343 335 330
97 96 95 95 94 95 101 105 107 106 105 106 108 111 111 106 106 107 105 97 73 91 91 82 75 62 53 69 75 75 74 71 62 51 37 25 15 4 355 349 344 338 334 331
94 95 95 95 95 93 95 100 106 108 106 106 110 114 113 110 105 97 93 114 120 107 94 81 74 72 75 75 73 74 75 68 53 38 30 19 9 360 351 347 342 339 337 335
93 95 96 99 103 106 102 103 110 114 115 117 121 125 125 128 129 124 118 132 126 111 102 96 93 83 79 71 70 78 75 64 49 33 26 16 7 5 359 355 352 349 348 349
90 88 91 96 97 101 105 107 107 107 108 109 114 122 125 119 104 107 129 136 131 118 113 116 101 89 80 69 71 77 69 58 47 32 26 20 17 16 10 6 2 358 357 357
94 91 89 90 91 100 112 109 101 97 97 99 102 106 115 128 135 141 136 137 137 128 130 130 112 95 82 81 88 88 73 66 64 53 37 30 24 20 16 12 10 3 357 353
104 100 96 98 111 115 113 112 112 115 113 110 104 106 110 115 124 130 134 143 148 152 165 190 131 109 111 107 94 83 74 66 61 58 51 42 31 28 21 16 11 2 352 346
86 91 93 86 84 98 108 114 118 123 129 130 127 128 129 129 131 138 143 149 155 158 158 139 126 123 118 107 96 92 89 83 74 68 57 42 31 22 13 13 2 349 349 344
Height
1472 1466 1465 1465 1462 1460 1465 1469 1477 1474 1472 1468 1465 1466 1468 1470 1473 1477 1480 1481 1484 1486 1489 1492 1495 1498 1501 1503 1507 1510 1513 1515 1518 1520 1522 1523 1525 1526 1526 1528 1529 1530 1530 1531
1472 1464 1462 1462 1457 1455 1456 1457 1462 1464 1468 1460 1462 1466 1469 1471 1473 1476 1479 1482 1484 1486 1488 1491 1494 1497 1500 1502 1504 1507 1509 1512 1516 1518 1519 1520 1521 1522 1523 1523 1524 1524 1525 1525
1479 1469 1464 1468 1459 1457 1455 1452 1455 1462 1460 1457 1463 1466 1469 1472 1474 1476 1480 1482 1484 1487 1489 1490 1493 1496 1499 1501 1504 1506 1509 1511 1513 1515 1516 1517 1518 1518 1519 1519 1519 1519 1520 1520
1480 1475 1480 1463 1454 1451 1450 1447 1446 1448 1451 1455 1461 1467 1470 1472 1473 1477 1481 1484 1486 1489 1491 1493 1495 1497 1500 1502 1504 1506 1508 1510 1512 1514 1515 1516 1516 1516 1517 1517 1517 1517 1517 1517
1482 1481 1471 1458 1453 1453 1454 1452 1447 1446 1452 1457 1462 1467 1475 1477 1477 1480 1483 1486 1489 1492 1494 1496 1498 1500 1502 1504 1506 1508 1510 1512 1513 1514 1515 1515 1515 1515 1515 1515 1515 1515 1515 1515
1478 1478 1474 1460 1452 1449 1453 1458 1449 1447 1450 1454 1458 1470 1479 1480 1481 1483 1486 1489 1492 1495 1498 1500 1502 1504 1504 1506 1508 1510 1512 1513 1514 1515 1515 1515 1515 1514 1514 1514 1514 1514 1514 1514
1474 1474 1463 1453 1450 1450 1462 1457 1450 1449 1450 1454 1458 1464 1475 1480 1483 1487 1490 1493 1496 1498 1501 1504 1506 1507 1507 1509 1510 1512 1513 1514 1515 1515 1515 1515 1515 1514 1514 1514 1513 1513 1513 1512
1469 1470 1465 1450 1449 1452 1451 1447 1447 1450 1453 1457 1461 1470 1477 1481 1485 1490 1493 1496 1499 1501 1504 1507 1509 1510 1510 1511 1513 1514 1515 1515 1516 1516 1515 1515 1515 1514 1514 1514 1513 1512 1511 1511
1461 1459 1450 1446 1446 1447 1446 1446 1447 1450 1456 1459 1464 1472 1479 1484 1488 1493 1497 1500 1502 1504 1506 1509 1512 1512 1512 1514 1515 1515 1516 1516 1516 1516 1516 1515 1515 1514 1513 1513 1512 1511 1510 1509
1455 1451 1448 1445 1444 1445 1446 1445 1448 1452 1459 1463 1467 1474 1482 1487 1491 1495 1500 1503 1505 1507 1508 1511 1513 1514 1515 1516 1517 1516 1516 1516 1516 1516 1516 1515 1514 1513 1512 1511 1510 1509 1508 1507
1453 1450 1448 1446 1446 1446 1446 1447 1451 1457 1462 1467 1470 1477 1484 1489 1494 1498 1502 1505 1507 1509 1511 1513 1515 1516 1517 1518 1518 1517 1517 1517 1516 1515 1515 1514 1513 1512 1511 1510 1508 1507 1506 1504
1453 1449 1449 1449 1448 1448 1449 1453 1456 1461 1468 1474 1477 1482 1488 1493 1497 1501 1504 1507 1509 1511 1513 1515 1517 1518 1518 1518 1518 1518 1517 1516 1516 1515 1514 1513 1512 1511 1509 1508 1507 1505 1503 1502
1449 1450 1450 1451 1452 1452 1454 1458 1463 1467 1472 1478 1484 1488 1491 1496 1500 1503 1506 1509 1511 1513 1515 1517 1518 1519 1519 1519 1519 1518 1517 1516 1515 1514 1513 1511 1510 1509 1508 1507 1505 1503 1501 1499
1450 1450 1454 1456 1457 1460 1462 1465 1470 1475 1480 1484 1489 1493 1496 1499 1503 1506 1509 1511 1513 1515 1517 1518 1519 1519 1520 1519 1519 1518 1516 1515 1514 1512 1511 1510 1509 1507 1506 1504 1502 1500 1498 1495
1454 1454 1457 1460 1463 1466 1469 1472 1476 1481 1486 1490 1494 1497 1500 1503 1506 1508 1511 1512 1514 1516 1518 1519 1519 1519 1519 1519 1518 1516 1515 1513 1512 1511 1509 1508 1506 1505 1503 1501 1499 1497 1494 1492
1458 1461 1463 1465 1468 1472 1475 1478 1482 1487 1491 1494 1498 1501 1503 1506 1508 1511 1512 1514 1515 1517 1518 1519 1519 1519 1519 1518 1516 1515 1513 1512 1510 1509 1507 1506 1504 1502 1500 1498 1496 1494 1491 1488
1461 1466 1468 1471 1474 1478 1481 1484 1487 1491 1495 1498 1501 1503 1506 1508 1510 1512 1514 1515 1516 1517 1518 1518 1518 1518 1517 1516 1514 1513 1511 1510 1508 1507 1505 1503 1501 1499 1497 1495 1493 1491 1489 1486
1466 1469 1472 1475 1478 1482 1486 1490 1493 1496 1499 1501 1504 1506 1508 1510 1512 1513 1515 1516 1517 1517 1518 1518 1518 1517 1515 1514 1513 1511 1510 1508 1507 1505 1503 1501 1499 1497 1495 1493 1491 1489 1487 1484
1473 1475 1479 1482 1484 1487 1490 1494 1497 1499 1502 1504 1506 1508 1509 1511 1512 1513 1515 1515 1516 1517 1517 1517 1516 1515 1514 1512 1511 1510 1508 1507 1505 1504 1502 1500 1498 1496 1494 1492 1490 1488 1485 1482
1479 1481 1484 1487 1490 1492 1495 1498 1500 1502 1504 1506 1507 1509 1510 1512 1513 1514 1515 1516 1516 1517 1517 1516 1515 1514 1512 1511 1510 1509 1507 1506 1504 1502 1501 1499 1497 1495 1494 1491 1489 1487 1484 1481
1484 1487 1489 1492 1494 1497 1499 1501 1503 1504 1506 1508 1509 1510 1511 1513 1514 1514 1515 1515 1516 1516 1516 1515 1514 1513 1511 1510 1509 1508 1506 1505 1503 1502 1500 1499 1497 1495 1493 1491 1489 1486 1483 1480
1489 1491 1494 1496 1498 1500 1502 1504 1505 1506 1508 1509 1510 1511 1512 1513 1514 1514 1515 1515 1515 1515 1515 1514 1513 1512 1511 1510 1509 1507 1506 1505 1503 1502 1500 1499 1497 1495 1493 1491 1488 1485 1482 1479
1493 1496 1498 1499 1501 1503 1504 1506 1506 1507 1509 1510 1510 1511 1512 1512 1513 1513 1514 1514 1514 1514 1513 1513 1512 1511 1511 1510 1509 1507 1506 1505 1503 1502 1500 1499 1497 1495 1493 1490 1487 1484 1481 1477
1497 1499 1500 1501 1503 1504 1505 1506 1507 1508 1509 1510 1510 1511 1512 1512 1512 1513 1513 1513 1513 1513 1513 1512 1512 1512 1511 1510 1509 1508 1507 1505 1504 1502 1501 1499 1497 1495 1492 1489 1486 1483 1480 1476
1499 1500 1501 1502 1503 1504 1506 1506 1507 1508 1509 1509 1510 1511 1511 1512 1512 1512 1512 1513 1513 1513 1513 1513 1513 1512 1511 1510 1509 1508 1507 1506 1504 1503 1501 1499 1496 1494 1491 1488 1485 1482 1478 1475
1500 1501 1502 1503 1504 1505 1506 1506 1507 1508 1508 1509 1510 1510 1511 1511 1512 1512 1512 1513 1513 1514 1513 1513 1513 1512 1512 1511 1510 1509 1507 1506 1504 1502 1500 1498 1496 1493 1490 1487 1484 1481 1478 1474
1501 1502 1502 1503 1504 1505 1505 1506 1507 1507 1508 1509 1509 1510 1511 1511 1512 1512 1513 1513 1513 1513 1513 1513 1513 1513 1512 1512 1510 1509 1508 1506 1505 1503 1500 1498 1495 1493 1490 1487 1484 1481 1477 1473